CW8947 Weather Reports


Display with metric or nautical units.
time (UTC)temp
F
wind
direction
speed
MPH
gust
MPH
rain 1hr
in
rain 24hr
in
rain mn
in
humidity
%
barometer
mb
20260502090619 52 360 2.0 8.0 0.00 0.00 0.00 40 1019.2
20260502070627 55 360 6.0 11.0 0.00 0.00 0.00 36 1018.9
20260502065648 55 360 6.0 12.0 0.00 0.00 0.00 36 1018.9
20260502064619 56 360 3.0 8.0 0.00 0.00 0.00 35 1019.1
20260502063626 56 360 2.0 9.0 0.00 0.00 0.00 34 1018.9
20260502062614 57 360 5.0 13.0 0.00 0.00 0.00 33 1018.8
20260502061623 57 360 5.0 11.0 0.00 0.00 0.00 33 1018.7
20260502060622 57 360 5.0 9.0 0.00 0.00 0.00 33 1018.8
20260502055627 57 360 5.0 8.0 0.00 0.00 0.00 34 1018.7
20260502054616 57 360 3.0 9.0 0.00 0.00 0.00 35 1018.8
20260502053626 57 360 4.0 10.0 0.00 0.00 0.00 35 1018.7
20260502052620 56 360 3.0 6.0 0.00 0.00 0.00 36 1018.7
20260502051630 56 360 1.0 4.0 0.00 0.00 0.00 38 1018.6
20260502050620 56 360 0.0 2.0 0.00 0.00 0.00 38 1018.6
20260502045622 56 360 1.0 4.0 0.00 0.00 0.00 38 1018.6
20260502044615 57 360 1.0 4.0 0.00 0.00 0.00 39 1018.6
20260502043624 57 360 1.0 3.0 0.00 0.00 0.00 38 1018.6
20260502042613 57 360 1.0 4.0 0.00 0.00 0.00 37 1018.4
20260502041645 58 360 1.0 3.0 0.00 0.00 0.00 38 1018.4
20260502040619 58 360 1.0 2.0 0.00 0.00 0.00 39 1018.3
20260502035622 59 360 1.0 3.0 0.00 0.00 0.00 37 1018.3
20260502034612 60 360 2.0 4.0 0.00 0.00 0.00 37 1018.2
20260502033623 61 360 1.0 3.0 0.00 0.00 0.00 37 1018.1
20260502032617 61 360 1.0 4.0 0.00 0.00 0.00 37 1018.0
20260502031624 62 360 0.0 4.0 0.00 0.00 0.00 35 1017.8
20260502030612 63 360 1.0 4.0 0.00 0.00 0.00 33 1017.6
20260502025612 64 360 0.0 1.0 0.00 0.00 0.00 28 1017.4
20260502024625 65 360 0.0 1.0 0.00 0.00 0.00 26 1017.3
20260502023630 65 360 1.0 3.0 0.00 0.00 0.00 26 1017.3
20260502022638 66 360 1.0 3.0 0.00 0.00 0.00 25 1017.2
20260502021625 66 267 1.0 4.0 0.00 0.00 0.00 24 1017.2
20260502020618 67 266 1.0 4.0 0.00 0.00 0.00 24 1017.1
20260502015618 67 272 2.0 5.0 0.00 0.00 0.00 23 1017.1
20260502014626 67 271 3.0 7.0 0.00 0.00 0.00 23 1017.0
20260502013615 68 277 4.0 8.0 0.00 0.00 0.00 23 1017.0
20260502012626 68 288 3.0 8.0 0.00 0.00 0.00 23 1016.9
20260502011614 68 261 5.0 7.0 0.00 0.00 0.00 22 1016.9
20260502010622 68 296 1.0 9.0 0.00 0.00 0.00 22 1016.9
20260502005624 68 269 7.0 10.0 0.00 0.00 0.00 22 1017.0
20260502004616 68 298 3.0 10.0 0.00 0.00 0.00 22 1017.0
20260502003621 68 296 3.0 11.0 0.00 0.00 0.00 22 1017.0
20260502002631 68 261 8.0 11.0 0.00 0.00 0.00 22 1017.0
20260502001621 69 271 3.0 10.0 0.00 0.00 0.00 22 1017.0
20260502000616 68 291 5.0 13.0 0.00 0.00 0.00 22 1017.0
20260501235616 69 291 9.0 14.0 0.00 0.00 0.00 22 1017.0
20260501234626 68 323 4.0 13.0 0.00 0.00 0.00 22 1017.0
20260501233617 68 259 6.0 15.0 0.00 0.00 0.00 22 1017.0
20260501232631 68 269 7.0 14.0 0.00 0.00 0.00 23 1017.1
20260501231618 68 263 9.0 13.0 0.00 0.00 0.00 22 1017.2
20260501230629 68 301 3.0 13.0 0.00 0.00 0.00 23 1017.3
20260501225651 67 271 7.0 13.0 0.00 0.00 0.00 24 1017.4
20260501224622 68 313 9.0 15.0 0.00 0.00 0.00 23 1017.5
20260501223648 69 290 6.0 13.0 0.00 0.00 0.00 22 1017.5
20260501222614 69 320 4.0 10.0 0.00 0.00 0.00 22 1017.7
20260501221643 68 317 2.0 10.0 0.00 0.00 0.00 23 1017.9
20260501220616 68 28 3.0 11.0 0.00 0.00 0.00 22 1018.0
20260501215616 68 306 4.0 12.0 0.00 0.00 0.00 22 1018.1
20260501214624 68 323 3.0 14.0 0.00 0.00 0.00 22 1018.1
20260501213614 67 25 3.0 11.0 0.00 0.00 0.00 23 1018.2
20260501212626 67 273 5.0 12.0 0.00 0.00 0.00 22 1018.4
20260501211616 67 335 4.0 13.0 0.00 0.00 0.00 23 1018.3
20260501210626 67 292 3.0 14.0 0.00 0.00 0.00 22 1018.5
20260501205625 67 310 7.0 13.0 0.00 0.00 0.00 21 1018.5
20260501204618 67 55 7.0 13.0 0.00 0.00 0.00 22 1018.4
20260501203629 66 332 4.0 13.0 0.00 0.00 0.00 22 1018.5
20260501202619 66 304 6.0 12.0 0.00 0.00 0.00 22 1018.4
20260501201648 66 282 6.0 13.0 0.00 0.00 0.00 22 1018.5
20260501200621 66 298 9.0 15.0 0.00 0.00 0.00 22 1018.5
20260501195620 66 300 5.0 12.0 0.00 0.00 0.00 22 1018.5
20260501194628 65 313 7.0 12.0 0.00 0.00 0.00 22 1018.6
20260501193616 66 327 2.0 8.0 0.00 0.00 0.00 21 1018.7
20260501192644 66 271 2.0 7.0 0.00 0.00 0.00 20 1018.8
20260501191619 66 96 7.0 12.0 0.00 0.00 0.00 14 1018.9
20260501190629 65 44 4.0 10.0 0.00 0.00 0.00 17 1018.9
20260501185630 64 88 4.0 11.0 0.00 0.00 0.00 19 1019.1
20260501184617 63 268 3.0 7.0 0.00 0.00 0.00 21 1019.2
20260501183612 63 281 3.0 7.0 0.00 0.00 0.00 21 1019.3
20260501182622 63 47 1.0 9.0 0.00 0.00 0.00 21 1019.5
20260501181652 63 86 3.0 11.0 0.00 0.00 0.00 21 1019.5
20260501180627 63 93 9.0 13.0 0.00 0.00 0.00 21 1019.6
20260501175612 62 76 9.0 15.0 0.00 0.00 0.00 22 1019.7
20260501174623 62 70 9.0 15.0 0.00 0.00 0.00 20 1019.7
20260501173613 62 27 9.0 16.0 0.00 0.00 0.00 21 1019.8
20260501172623 62 91 7.0 16.0 0.00 0.00 0.00 21 1019.8
20260501171617 61 49 7.0 11.0 0.00 0.00 0.00 23 1019.8
20260501170626 61 70 7.0 13.0 0.00 0.00 0.00 23 1020.0
20260501165625 60 64 5.0 17.0 0.00 0.00 0.00 25 1019.9
20260501164615 60 68 8.0 18.0 0.00 0.00 0.00 26 1020.1
20260501163627 59 66 9.0 18.0 0.00 0.00 0.00 25 1020.0
20260501162615 59 59 9.0 18.0 0.00 0.00 0.00 25 1020.1
20260501161625 59 110 12.0 17.0 0.00 0.00 0.00 25 1020.1
20260501160615 59 59 8.0 15.0 0.00 0.00 0.00 26 1019.9
20260501155620 59 49 9.0 18.0 0.00 0.00 0.00 27 1019.9
20260501153622 58 89 7.0 15.0 0.00 0.00 0.00 29 1019.8